Location: Treviso
(45.6669°N, 12.2430°E)
Time: 10:23:20
(UTC+02:00)

ISS - Pass Details

Date: 22 May 2018
Orbit: 402 x 407 km, 51.6° (Epoch: 23 May)

Event Time Altitude Azimuth Distance (km) Brightness Sun altitude
Rises 21:22:36 0° 215° (SW) 2,308 0.0 -6.5°
Reaches altitude 10° 21:24:48 10° 204° (SSW) 1,452 -1.2 -6.8°
Maximum altitude 21:27:43 30° 141° (SE) 743 -3.0 -7.2°
Drops below altitude 10° 21:30:38 10° 77° (ENE) 1,458 -1.4 -7.6°
Sets 21:32:51 0° 67° (ENE) 2,321 -0.2 -7.9°
